Weather Service Report


787 
ASCA42 TJSJ 290310
RWRPR 
PUERTO RICO/U.S. VIRGIN ISLANDS HOURLY WEATHER ROUNDUP
NATIONAL WEATHER SERVICE SAN JUAN PR
1100 PM AST SAT MAR 28 2015

PRZ001-004-290400-
PUERTO RICO
  
CITY           SKY/WX    TMP DP  RH WIND       PRES   REMARKS
SAN JUAN LMM   PTCLDY    77  70  78 E5        30.12F                  
PONCE          PTCLDY    77  70  78 NE6       30.05S                  
AGUADILLA      CLEAR     73  66  78 SE5       30.12S                  
CEIBA          PTCLDY    79  70  73 E9        30.14S                  
$$

PRZ006-007-290400-
U.S. VIRGIN ISLANDS
  
CITY           SKY/WX    TMP DP  RH WIND       PRES   REMARKS
CHARLOTTE AMA  CLEAR     79  70  73 E14       30.12                   
CHRISTIANSTED  PTCLDY    79  70  73 E15       30.12                   
$$

HOURLY WEATHER ROUNDUP FOR THE NEWS MEDIA
  
CITY           SKY/WX    TMP DP  RH WIND       PRES   REMARKS
ORLANDO        PTCLDY    58  42  55 W8        30.23R                  
NEW YORK       CLOUDY    31  17  56 NW16G29   30.10R WCI  20          
NEWARK         MOCLDY    30  13  49 N17G26    30.11R WCI  18          
CHICAGO        CLEAR     25  12  58 SE9       30.29R WCI  15          
HARTFORD       LGT SNOW  32  31  96 NW3       29.99R FOG              
BOSTON         CLOUDY    33  25  72 NW15      30.00R WCI  23          
DALLAS         PTCLDY    73  45  35 SE14      30.00R                  
PHILADELPHIA   PTCLDY    30   6  36 NW22G28   30.17R WCI  17          
LOS ANGELES    PTCLDY    61  58  90 SW9       30.02S                  
WASHINGTON DC  CLEAR     28   7  41 NW9       30.24R WCI  19          

Return to Home page


Western Regional Climate Center, wrcc@dri.edu